Back to catalog

CS2

AliveCommunicationsSSO
NORAD 49262·PAYLOAD·🇺🇸 United States

Launched Sep 27, 2021 from Vandenberg Space Force Base

Loading…

Next Passes (next 24 hours)

TLE

FreshSource: Space-Track

Epoch: Sep 14, 2026, 10:40 UTC

1 49262U 21088C   26257.44461934  .00012451  00000-0  32604-3 0  9990
2 49262  97.3723 323.5708 0010393 119.1620 241.0667 15.38795422274230

Track CS2 in real time with AllMySat

Download on the App Store